Flag for Canada Weather past 2 weeks in Resolute Bay, Nunavut Territory, Canada

Now
32 °F

Passing clouds.


Feels Like: 21 °F
Forecast: -13 / -4 °F
Wind: 16 mph from North

Location: Resolute

Current Time: Oct 21, 2014 at 11:15:13 PM

Latest Report: Oct 21, 2014 at 10:00 PM


Visibility: 15 mi

Pressure: 29.86 "Hg

Humidity: 100%

Dew point: 32 °F

Location of Resolute BayLocation

Historic Weather in Resolute Bay — Graph

°F

Resolute Bay temperature yesterday

Maximum temperature yesterday: 7 °F (at 7:00 AM)
Minimum temperature yesterday: -9 °F (at 8:00 PM)
Average temperature yesterday: 1 °F

Past Weeks' High & Low Weather Summary

 TemperatureHumidityPressure
High34 °F (Oct 12, 4:00 AM)100% (Oct 7, 6:00 PM)30.59 "Hg (Oct 7, 6:00 PM)
Low-15 °F (Oct 21, 4:00 PM)66% (Oct 18, 11:00 PM)29.67 "Hg (Oct 11, 3:00 PM)
Average15 °F87%30.10 "Hg
* Reported Oct 6 9:00 PM — Oct 21 9:00 PM, Resolute Bay, Weather by CustomWeather, © 2014

Note: Actual official high and low records may vary slightly from our data, if they occured in-between our weather recording intervals... More about our weather records

Advertising

Resolute Bay weather history for previous 24 hours

 ConditionsComfort  
Time TempWeatherWind HumidityBarometerVisibility
9:00 PM
Oct 21
32 °FPassing clouds.16 mph100%29.92 "Hg15 mi
8:00 PM32 °FPassing clouds.10 mph100%29.94 "Hg15 mi
7:00 PM-15 °FPassing clouds.16 mph76%29.93 "Hg15 mi
6:00 PM-15 °FPassing clouds.16 mph83%29.94 "Hg15 mi
5:00 PM-15 °FPassing clouds.22 mph76%29.95 "Hg15 mi
4:00 PM-15 °FLow level haze.23 mph76%29.96 "Hg15 mi
3:00 PM-13 °FPassing clouds.20 mph76%29.96 "Hg15 mi
2:00 PM-13 °FPassing clouds.16 mph76%29.97 "Hg15 mi
1:00 PM-11 °FPassing clouds.18 mph76%29.97 "Hg10 mi
12:00 PM-11 °FLow level haze.22 mph84%29.97 "Hg15 mi
11:00 AM-11 °FLow level haze.20 mph76%29.98 "Hg10 mi
10:00 AM-8 °FPassing clouds.14 mph77%29.98 "Hg10 mi
9:00 AM-9 °FPassing clouds.21 mph84%29.99 "Hg15 mi
8:00 AM-8 °FClear.23 mph77%30.00 "Hg15 mi
7:00 AM-8 °FClear.14 mph77%30.01 "Hg15 mi
6:00 AM-8 °FClear.16 mph77%30.01 "Hg15 mi
5:00 AM-8 °FClear.14 mph84%30.02 "Hg15 mi
4:00 AM-8 °FPassing clouds.17 mph84%30.03 "Hg15 mi
3:00 AM-8 °FPassing clouds.16 mph84%30.03 "Hg15 mi
2:00 AM-9 °FPassing clouds.8 mph77%30.05 "Hg15 mi
1:00 AM-9 °FClear.12 mph77%30.05 "Hg15 mi
12:00 AM-9 °FClear.23 mph77%30.05 "Hg15 mi
11:00 PM
Oct 20
-6 °FClear.18 mph77%30.04 "Hg15 mi
Weather by CustomWeather, © 2014

See weather overviewHow to use our weather pages